519  
NZUS99 KDVN 291810  
HRRCWA  
HOURLY WEATHER ROUNDUP  
NATIONAL WEATHER SERVICE QUAD CITIES IA IL  
100 PM CDT MON MAY 29 2017  
 
NOTE: "FAIR" INDICATES FEW OR NO CLOUDS BELOW 12,000 FEET WITH  
NO SIGNIFICANT WEATHER AND/OR OBSTRUCTIONS TO VISIBILITY.  
 
* - THESE STATIONS ARE NOT NWS STATIONS AND ARE NOT SUBJECT TO NWS  
QUALITY CONTROL. SOME STATIONS DO NOT REPORT WEATHER SUCH AS FOG.  
   
..NORTHEAST IOWA...............................................
 
 
 
CITY SKY/WX TMP DP RH WIND PRES REMARKS  
DECORAH * PTSUNNY 63 45 51 NW13G23 29.85R  
DUBUQUE MOSUNNY 69 47 45 W22G31 29.88R  
6HR MIN TEMP: 55; 6HR MAX TEMP: 69;  
 
INDEPENDENCE * MOSUNNY 70 43 37 W24G31 29.88F  
OELWEIN * PTSUNNY 66 45 45 W23 29.89R  
WATERLOO PTSUNNY 68 43 40 NW17G25 29.88S  
6HR MIN TEMP: 58; 6HR MAX TEMP: 69;  
 
   
..SOUTHWEST AND SOUTH CENTRAL WISCONSIN........................
 
 
 
CITY SKY/WX TMP DP RH WIND PRES REMARKS  
BOSCOBEL MOSUNNY 67 45 45 W16G23 29.85R  
6HR MIN TEMP: 58; 6HR MAX TEMP: 67;  
 
JANESVILLE * PTSUNNY 72 46 40 W21G28 29.82R  
LONE ROCK PTSUNNY 66 45 46 W20G31 29.83R  
6HR MIN TEMP: 57; 6HR MAX TEMP: 67;  
 
MINERAL POINT* CLOUDY 66 45 45 W20G29 29.84R  
MONROE * MOSUNNY 66 45 45 W26 29.85R  
PRAIRIE DU CHI PTSUNNY 67 42 41 W18G28 29.85S  
6HR MIN TEMP: 58; 6HR MAX TEMP: 68;  
 
   
..EAST CENTRAL IOWA............................................
 
 
 
CITY SKY/WX TMP DP RH WIND PRES REMARKS  
CEDAR RAPIDS PTSUNNY 71 46 40 W24G35 29.89F  
6HR MIN TEMP: 56; 6HR MAX TEMP: 72;  
 
CLINTON * SUNNY 71 46 40 W22G33 29.88S  
6HR MIN TEMP: 57; 6HR MAX TEMP: 72; 6HR PCP: TRACE;  
 
DAVENPORT SUNNY 74 44 34 W21G29 29.89F  
6HR MIN TEMP: 58; 6HR MAX TEMP: 74; 6HR PCP: TRACE;  
 
IOWA CITY MOSUNNY 73 47 39 W18G24 29.92S  
6HR MIN TEMP: 57; 6HR MAX TEMP: 74; 6HR PCP: TRACE;  
 
MARSHALLTOWN PTSUNNY 68 45 43 W20G30 29.91S  
6HR MIN TEMP: 54; 6HR MAX TEMP: 70;  
 
MONTICELLO * MOSUNNY 70 46 43 W16G29 29.88S  
MUSCATINE * SUNNY 73 45 35 W21G29 29.91F  
NEWTON * MOSUNNY 72 43 35 W20G30 29.93S  
VINTON * MOSUNNY 70 43 37 NW14G24 29.90R  
   
..NORTHWEST ILLINOIS...........................................
 
 
 
CITY SKY/WX TMP DP RH WIND PRES REMARKS  
FREEPORT * MOSUNNY 68 46 45 W20G29 29.87S  
6HR MIN TEMP: 57; 6HR MAX TEMP: 68;  
 
MOLINE SUNNY 74 45 35 W20 29.89S  
6HR MIN TEMP: 60; 6HR MAX TEMP: 74; 6HR PCP: TRACE;  
 
PERU * SUNNY 73 46 37 W16G23 29.88S  
6HR MIN TEMP: 59; 6HR MAX TEMP: 73;  
 
ROCHELLE * SUNNY 71 48 44 W21G30 29.87S  
6HR MIN TEMP: 59; 6HR MAX TEMP: 71;  
 
ROCKFORD MOSUNNY 72 48 42 W21G30 29.85S  
6HR MIN TEMP: 59; 6HR MAX TEMP: 72;  
 
SAVANNA * MOSUNNY 71 47 43 W13G18 29.87S  
6HR MIN TEMP: 60; 6HR MAX TEMP: 71;  
 
STERLING/R.F.* SUNNY 72 49 44 W22G31 29.87S  
6HR MIN TEMP: 58; 6HR MAX TEMP: 72;  
 
   
..SOUTHEAST IOWA AND NORTHEAST MISSOURI........................
 
 
 
CITY SKY/WX TMP DP RH WIND PRES REMARKS  
BURLINGTON MOSUNNY 76 44 32 W15G25 29.92S  
6HR MIN TEMP: 60; 6HR MAX TEMP: 76;  
 
FAIRFIELD * SUNNY 73 41 31 W23G29 29.93S  
FORT MADISON * MOSUNNY 77 45 31 NW13G18 29.94S  
KEOKUK * MOSUNNY 75 46 35 NW10 29.94R  
KIRKSVILLE SUNNY 76 50 40 NW10G17 29.97F  
6HR MIN TEMP: 58; 6HR MAX TEMP: 76;  
 
MT PLEASANT * SUNNY 74 37 26 W15G23 29.93S  
6HR MIN TEMP: 60; 6HR MAX TEMP: 75;  
 
OTTUMWA SUNNY 73 44 35 W15G23 29.94S  
6HR MIN TEMP: 58; 6HR MAX TEMP: 74; 6HR PCP: TRACE;  
 
WASHINGTON * SUNNY 73 43 33 W20G32 29.93F  
   
..WESTERN ILLINOIS.............................................
 
 
 
CITY SKY/WX TMP DP RH WIND PRES REMARKS  
GALESBURG * SUNNY 75 46 35 W13G20 29.91S  
6HR MIN TEMP: 59; 6HR MAX TEMP: 75;  
 
MACOMB * MOSUNNY 74 46 35 W14 29.95S  
6HR MIN TEMP: 60; 6HR MAX TEMP: 74;  
 
PEORIA PTSUNNY 75 48 38 NW10G21 29.91S  
6HR MIN TEMP: 59; 6HR MAX TEMP: 76;  
 
QUINCY PTSUNNY 75 53 46 NW12 29.95R  
6HR MIN TEMP: 59; 6HR MAX TEMP: 77;  
 
END...  
 
 
CLICK HERE TO GO TO PREVIOUS BULLETINS.

The Nexlab IL Page
The Nexlab IA Page
The Nexlab MO Page Main Text Page

The Nexlab IL Page
The Nexlab IA Page
The Nexlab MO Page Main Text Page